Station: Tasman Island  

  Atmospheric Gas Attenuation - ITU Rec 676-11   ----------------- dB/100km -----------------
Date Time Temp RH % AH g/m3 Dew Point Wind Direction Speed kph Gust kph Barometer mB Rainfall Since 9am 24GHz 47GHz 76GHz 122GHz 134GHz 241GHz
04/09 19:10 10.7 55 5.4 2 17 24 1007.9 0 12.9 21.6 28.6 74.6 60.6 205.8
04/09 19:00 10.8 53 5.24 1.6 17 24 1007.8 0 12.5 21.3 28.0 72.9 58.6 198.7
04/09 18:50 10.8 53 5.24 1.6 17 22 1007.7 0 12.5 21.3 28.0 72.9 58.6 198.7
04/09 18:40 10.8 53 5.24 1.6 17 22 1007.6 0 12.5 21.3 28.0 72.9 58.6 198.7
04/09 18:30 11 51 5.11 1.3 17 24 1007.7 0 12.3 21.0 27.4 71.5 56.9 192.8
04/09 18:20 11 51 5.11 1.3 20 35 1007.5 0 12.3 21.0 27.4 71.5 56.9 192.7
04/09 18:10 10.8 51 5.04 1.1 20 33 1007.3 0 12.1 21.0 27.2 71.0 56.2 190.3
04/09 18:00 10.9 51 5.07 1.2 20 30 1007.2 0 12.2 21.0 27.3 71.1 56.5 191.3
04/09 17:50 10.9 50 4.97 0.9 20 33 1007.1 0 12.0 20.8 27.0 70.2 55.3 187.1
04/09 17:40 10.9 50 4.97 0.9 22 35 1007 0 12.0 20.8 26.9 70.2 55.3 187.1
04/09 17:30 11 50 5.01 1 20 32 1007.1 0 12.0 20.9 27.1 70.5 55.7 188.5
04/09 17:20 11.3 50 5.1 1.3 15 28 1007.3 0 12.2 21.0 27.3 71.1 56.6 191.6
04/09 17:10 11.4 52 5.34 1.9 17 33 1007.2 0 12.7 21.3 28.1 73.3 59.4 201.3
04/09 17:00 11.8 47 4.95 0.9 19 37 1007.4 0 11.9 20.6 26.6 69.2 54.5 184.2
04/09 16:50 11.8 51 5.37 2 11 22 1007.4 0 12.8 21.2 28.1 73.2 59.4 201.6
04/09 16:40 11.7 50 5.23 1.6 15 24 1007.4 0 12.5 21.1 27.6 72.0 57.8 196.0
04/09 16:30 11.6 49 5.09 1.3 13 24 1007.4 0 12.2 20.9 27.2 70.7 56.3 190.5
04/09 16:20 11.8 50 5.26 1.7 11 20 1007.6 0 12.6 21.1 27.7 72.2 58.1 197.1
04/09 16:10 11.9 50 5.3 1.8 9 19 1007.7 0 12.6 21.1 27.8 72.5 58.5 198.5
04/09 16:00 12.1 51 5.47 2.3 15 22 1007.7 0 13.0 21.3 28.4 74.0 60.4 205.1
04/09 15:50 12.1 50 5.36 2 13 24 1007.8 0 12.8 21.2 28.0 72.9 59.1 200.6
04/09 15:40 12.4 49 5.35 2 9 22 1007.7 0 12.7 21.1 27.8 72.5 58.8 199.4
04/09 15:30 12 50 5.33 1.9 17 32 1007.7 0 12.7 21.1 27.9 72.7 58.8 199.5
04/09 15:20 11.9 46 4.87 0.7 20 32 1007.6 0 11.7 20.5 26.3 68.4 53.5 180.8
04/09 15:10 12 45 4.8 0.5 20 33 1007.6 0 11.6 20.4 26.0 67.7 52.6 177.7
04/09 15:00 11.9 47 4.98 1 20 33 1007.7 0 12.0 20.7 26.7 69.5 54.8 185.3
04/09 14:50 12.1 47 5.04 1.1 19 30 1007.8 0 12.1 20.7 26.8 69.9 55.3 187.3
04/09 14:40 12.2 45 4.86 0.6 19 28 1007.9 0 11.7 20.4 26.2 68.1 53.2 179.7
04/09 14:30 12.4 45 4.92 0.8 20 33 1008 0 11.8 20.5 26.3 68.5 53.7 181.8
04/09 14:20 12.5 44 4.84 0.6 20 33 1008 0 11.6 20.3 26.0 67.7 52.8 178.3
04/09 14:10 12.5 46 5.06 1.2 19 32 1008 0 12.1 20.6 26.8 69.7 55.3 187.2
04/09 14:00 11.9 48 5.08 1.3 19 32 1008.1 0 12.2 20.8 27.0 70.4 56.0 189.5
04/09 13:50 11.2 52 5.27 1.7 19 28 1008.2 0 12.6 21.3 28.0 72.9 58.7 199.1
04/09 13:40 11 53 5.31 1.8 19 28 1008.2 0 12.7 21.4 28.2 73.5 59.3 201.3
04/09 13:30 10.9 51 5.07 1.2 19 28 1008.3 0 12.2 21.0 27.4 71.2 56.6 191.4
04/09 13:20 10.9 50 4.97 0.9 22 33 1008.4 0 12.0 20.9 27.0 70.3 55.4 187.3
04/09 13:10 11.3 49 5 1 20 35 1008.4 0 12.0 20.8 27.0 70.2 55.5 187.6
04/09 13:00 10.9 51 5.07 1.2 19 32 1008.5 0 12.2 21.0 27.4 71.2 56.6 191.5
04/09 12:50 10.8 53 5.24 1.6 19 33 1008.7 0 12.5 21.3 28.0 73.0 58.7 198.9
04/09 12:40 11.1 55 5.54 2.4 17 24 1008.8 0 13.2 21.7 29.0 75.7 62.1 210.9
04/09 12:30 11.1 58 5.84 3.2 13 20 1009.1 0 13.8 22.2 30.1 78.6 65.8 223.8
04/09 12:20 11.8 55 5.79 3.1 17 26 1009.2 0 13.7 21.9 29.7 77.5 64.6 219.7
04/09 12:10 12.2 55 5.94 3.4 15 24 1009.4 0 14.0 22.0 30.1 78.6 66.1 225.0
04/09 12:00 10.8 55 5.44 2.1 19 28 1009.5 0 13.0 21.6 28.8 75.0 61.1 207.5
04/09 11:50 10.4 55 5.3 1.8 19 30 1009.5 0 12.7 21.5 28.4 74.0 59.7 202.6
04/09 11:40 9.8 58 5.38 1.9 19 28 1009.5 0 12.9 21.8 28.9 75.4 61.2 207.5
04/09 11:30 9.6 58 5.31 1.8 19 28 1009.6 0 12.7 21.7 28.7 74.9 60.5 205.0
04/09 11:20 9.4 60 5.43 2 17 26 1009.8 0 13.0 22.0 29.2 76.3 62.1 210.8
04/09 11:10 9.3 61 5.48 2.2 17 24 1009.8 0 13.1 22.1 29.5 76.9 62.8 213.2
04/09 11:00 9.5 59 5.37 1.9 13 24 1009.9 0 12.9 21.9 29.0 75.6 61.3 207.9
04/09 10:50 9.7 56 5.16 1.4 11 24 1010 0 12.4 21.5 28.2 73.3 58.6 198.4
04/09 10:40 9.7 54 4.98 0.9 11 22 1010 0 12.0 21.2 27.5 71.6 56.4 190.8
04/09 10:30 9.6 52 4.76 0.2 17 26 1009.9 0 11.6 20.9 26.7 69.5 53.8 181.7
04/09 10:20 9.9 54 5.04 1 19 30 1009.8 0 12.1 21.3 27.6 72.0 57.0 192.8
04/09 10:10 10.2 53 5.04 1.1 20 30 1009.5 0 12.1 21.2 27.5 71.7 56.8 192.0
04/09 10:00 10.6 55 5.37 1.9 17 24 1009.4 0 12.8 21.6 28.6 74.5 60.4 205.0
04/09 09:50 10.6 51 4.98 0.9 17 30 1009.8 0 12.0 21.0 27.2 70.8 55.8 188.6
04/09 09:40 10.5 54 5.24 1.6 9 24 1010 0 12.6 21.4 28.2 73.4 59.0 199.9
04/09 09:30 10 56 5.26 1.6 9 26 1009.9 0 12.6 21.6 28.4 74.0 59.6 201.9
04/09 09:20 9.7 56 5.16 1.4 11 26 1009.8 0 12.4 21.5 28.1 73.3 58.6 198.4
04/09 09:10 10 56 5.26 1.6 15 26 1010 0 12.6 21.6 28.4 74.0 59.6 202.0
04/09 09:00 9.8 56 5.2 1.5 19 33 1010.2 0 12.5 21.5 28.3 73.6 59.0 199.9
04/09 08:50 9.7 53 4.89 0.6 17 41 1010 0.8 11.8 21.1 27.2 70.7 55.3 187.0
04/09 08:40 9.5 55 5.01 0.9 17 33 1009.9 0.8 12.1 21.3 27.7 72.0 56.9 192.5
04/09 08:30 9.4 58 5.25 1.6 19 35 1009.9 0.8 12.6 21.7 28.6 74.5 59.9 203.0
04/09 08:20 9.3 56 5.03 1 19 35 1010.2 0.8 12.1 21.4 27.8 72.4 57.3 193.9
04/09 08:10 9.1 59 5.24 1.5 17 28 1010.4 0.8 12.6 21.8 28.7 74.7 60.0 203.4
04/09 08:00 9.1 61 5.41 2 17 30 1010.5 0.8 13.0 22.0 29.3 76.4 62.2 210.8
04/09 07:50 9 64 5.64 2.6 17 33 1010.3 0.8 13.5 22.4 30.2 78.8 65.1 221.1
04/09 07:40 8.9 62 5.43 2 17 30 1010.2 0.8 13.0 22.1 29.4 76.8 62.5 212.2
04/09 07:30 8.8 64 5.57 2.4 15 26 1010 0.8 13.3 22.3 30.0 78.3 64.4 218.5
04/09 07:20 8.7 63 5.45 2.1 13 26 1009.5 0.8 13.1 22.2 29.6 77.1 62.9 213.5
04/09 07:10 8.5 64 5.47 2.1 15 30 1009.3 0.8 13.1 22.2 29.7 77.5 63.3 214.8
04/09 07:00 8.6 62 5.33 1.7 17 33 1009 0.8 12.8 22.0 29.1 76.0 61.5 208.4
04/09 06:50 8.6 62 5.33 1.7 15 28 1008.9 0.8 12.8 22.0 29.1 76.0 61.5 208.4
04/09 06:40 8.4 61 5.18 1.3 15 33 1008.6 0.8 12.5 21.8 28.6 74.6 59.7 202.3
04/09 06:30 8.3 63 5.31 1.7 9 24 1008.5 0.8 12.8 22.0 29.1 76.0 61.4 208.2
04/09 06:20 8.3 63 5.31 1.7 17 33 1008.4 0.8 12.8 22.0 29.1 76.0 61.4 208.2
04/09 06:10 8.4 64 5.43 2 15 33 1008.6 0.8 13.0 22.2 29.6 77.1 62.8 213.2
04/09 06:00 8.3 66 5.57 2.3 22 41 1008.7 0.8 13.3 22.4 30.1 78.7 64.7 219.7
04/09 05:50 8.3 65 5.48 2.1 19 33 1008.8 0.8 13.1 22.3 29.8 77.8 63.6 215.7
04/09 05:40 8.5 65 5.55 2.3 15 28 1008.8 0.8 13.3 22.3 30.0 78.3 64.3 218.3
04/09 05:30 8.6 64 5.5 2.2 15 24 1008.6 0.8 13.2 22.2 29.8 77.6 63.6 215.7
04/09 05:20 8.5 64 5.47 2.1 15 26 1008.7 0.8 13.1 22.2 29.7 77.4 63.3 214.7
04/09 05:10 8.5 65 5.55 2.3 13 24 1008.6 0.8 13.3 22.3 30.0 78.2 64.3 218.2
04/09 05:00 8.5 64 5.47 2.1 11 33 1008.5 0.8 13.1 22.2 29.7 77.4 63.3 214.7
04/09 04:50 8.6 63 5.42 2 17 32 1008.2 0.8 13.0 22.1 29.4 76.8 62.5 212.2
04/09 04:40 8.8 65 5.66 2.6 11 35 1008 0.8 13.5 22.4 30.3 79.0 65.4 222.1
04/09 04:30 8.8 67 5.83 3 9 26 1007.6 0.8 13.9 22.7 30.9 80.7 67.5 229.5
04/09 04:20 8.7 66 5.71 2.7 9 24 1007.7 0.8 13.6 22.5 30.5 79.6 66.1 224.5
04/09 04:10 8.4 64 5.43 2 9 26 1007.4 0.8 13.0 22.1 29.5 77.0 62.8 213.0
04/09 04:00 8.1 66 5.49 2.1 7 26 1007.3 0.8 13.2 22.3 29.9 77.9 63.8 216.4
04/09 03:50 8 63 5.21 1.4 7 24 1007.2 0.8 12.6 21.9 28.8 75.2 60.3 204.4
04/09 03:40 8.1 64 5.33 1.7 7 26 1007.1 0.8 12.8 22.0 29.2 76.3 61.7 209.3
04/09 03:30 8.2 63 5.28 1.6 9 20 1006.9 0.8 12.7 21.9 29.0 75.7 61.0 206.9
04/09 03:20 8.1 64 5.33 1.7 6 15 1006.7 0.8 12.8 22.0 29.2 76.2 61.7 209.3
04/09 03:10 8.2 64 5.36 1.8 13 20 1006.3 0.8 12.9 22.0 29.3 76.4 62.0 210.2
04/09 03:00 8.2 65 5.45 2 11 43 1006.1 0.8 13.1 22.2 29.6 77.3 63.1 214.2
04/09 02:50 8.2 64 5.36 1.8 9 28 1006.1 0.8 12.9 22.0 29.3 76.4 62.0 210.2
04/09 02:40 7.9 65 5.34 1.7 9 26 1005.9 0.8 12.9 22.1 29.3 76.5 62.0 210.1

Last Refresh: 04-Sep-2026 18:59:16

Bureau of Meteorology